Location: DARK SKY Beskydy - Park tmavé oblohy, www.darkskybeskydy.cz
(49.4926°N, 18.5016°E)
Time: 10:37:36
(UTC+02:00)

BlueWalker 3 - Pass Details

Date: 27 June 2024
Orbit: 480 x 491 km, 53.2° (Epoch: 23 July)

Event Time Altitude Azimuth Distance (km) Brightness Sun altitude
Rises 21:35:13 0° 275° (W) 2,542 6.4 -5.4°
Reaches altitude 10° 21:37:27 10° 281° (W) 1,660 5.5 -5.7°
Maximum altitude 21:41:04 46° 356° (N) 655 3.0 -6.1°
Drops below altitude 10° 21:44:41 10° 71° (ENE) 1,657 4.3 -6.5°
Sets 21:46:54 0° 78° (ENE) 2,536 5.2 -6.7°
